Location: Unspecified
(0.0000°N, 0.0000°E)
Time: 13:21:57
(UTC+00:00)

Hubble Space Telescope - Pass Details

Date: 11 May 2026
Orbit: 473 x 476 km, 28.5° (Epoch: 18 May)

Event Time Altitude Azimuth Distance (km) Brightness Sun altitude
Rises 18:55:19 0° 293° (WNW) 2,498 6.2 -14.0°
Reaches altitude 10° 18:57:32 10° 289° (WNW) 1,623 4.7 -14.5°
Maximum altitude 19:01:12 55° 210° (SSW) 566 0.9 -15.4°
Enters shadow 19:02:57 27° 143° (SE) 925 1.5 -15.8°
